Date,TemperatureHighF,TemperatureAvgF,TemperatureLowF,DewpointHighF,DewpointAvgF,DewpointLowF,HumidityHigh,HumidityAvg,HumidityLow,PressureMaxIn,PressureMinIn,WindSpeedMaxMPH,WindSpeedAvgMPH,GustSpeedMaxMPH,PrecipitationSumIn
2013-1-1,72.0,63.4,55.4,45.5,-10.4,-44.1,40,11,1,30.23,30.02,18,5,18,0.00
2013-1-2,75.2,65.9,59.2,-19.2,-37.4,-41.8,2,1,1,30.07,29.96,18,6,19,0.00
2013-1-3,64.6,59.9,52.9,-38.5,-41.4,-45.7,1,1,1,30.23,30.04,21,10,21,0.06
2013-1-4,59.0,54.9,51.4,-41.9,-44.4,-46.6,1,1,1,30.31,30.20,18,8,18,0.00
2013-1-5,74.1,56.1,48.6,-32.9,-43.7,-48.3,1,1,1,30.33,30.23,18,8,18,0.00
2013-1-6,63.9,59.6,57.0,-39.1,-41.5,-43.1,1,1,1,30.23,30.09,20,8,20,0.01
2013-1-7,63.3,59.0,54.0,-39.3,-41.9,-45.0,1,1,1,30.26,30.15,26,12,26,0.01
2013-1-8,70.9,64.5,61.2,-34.7,-38.6,-40.6,1,1,1,30.26,30.16,18,7,18,0.00
2013-1-9,68.4,64.3,61.2,-36.2,-38.7,-40.6,1,1,1,30.32,30.21,12,6,12,0.01
2013-1-10,72.7,67.1,62.8,-33.6,-37.0,-39.7,1,1,1,30.33,30.26,12,4,12,0.03
2013-1-11,75.9,69.5,62.8,-31.6,-35.5,-39.6,1,1,1,30.26,30.16,16,6,16,0.00
2013-1-12,74.1,68.0,62.4,-32.9,-36.4,-39.8,1,1,1,30.20,30.09,10,4,10,0.00
2013-1-13,75.0,68.1,61.7,-32.2,-36.4,-40.3,1,1,1,30.17,30.07,13,5,13,0.00
2013-1-14,74.8,67.7,61.5,-32.3,-36.6,-40.4,1,1,1,30.19,30.11,14,5,14,0.00
2013-1-15,75.9,68.4,61.9,-31.6,-36.2,-40.2,1,1,1,30.15,30.05,14,6,14,0.00
2013-1-16,77.4,68.3,60.8,-30.9,-36.2,-40.8,1,1,1,30.09,29.98,10,5,10,0.00
2013-1-17,76.5,63.5,49.3,27.0,-31.5,-44.5,38,3,1,30.12,29.88,23,9,23,0.00
2013-1-18,74.3,55.0,45.3,54.1,2.3,-50.1,78,33,1,30.34,30.12,39,25,39,0.00
2013-1-19,67.1,57.5,52.3,56.2,-0.4,-46.0,86,36,1,30.34,29.82,31,21,31,0.02
2013-1-20,63.7,58.1,51.8,-39.1,-42.5,-46.3,1,1,1,30.26,30.12,15,6,15,0.00
2013-1-21,63.9,59.1,52.9,-38.9,-41.9,-45.7,1,1,1,30.16,30.06,12,4,12,0.00
2013-1-22,57.2,54.4,50.4,37.4,3.7,-46.5,50,25,1,30.33,30.12,22,7,22,0.00
2013-1-23,55.6,50.7,44.2,33.3,13.6,-47.9,45,30,1,30.45,30.32,16,6,16,0.00
2013-1-24,68.2,58.2,48.6,45.5,-11.0,-48.3,46,15,1,30.35,30.23,17,7,17,0.00
2013-1-25,66.4,60.3,53.1,26.0,-40.1,-45.7,22,1,1,30.35,30.20,14,6,14,0.00
2013-1-26,72.0,63.3,52.3,-34.0,-39.3,-46.0,1,1,1,30.28,30.19,12,5,12,0.00
2013-1-27,64.8,60.0,55.4,-38.4,-41.3,-44.1,1,1,1,30.39,30.25,14,7,14,0.00
2013-1-28,71.2,63.5,57.6,-34.5,-39.2,-42.8,1,1,1,30.41,30.30,10,5,10,0.00
2013-1-29,74.1,63.5,59.2,-32.9,-39.2,-41.8,1,1,1,30.31,30.14,16,8,16,0.00
2013-1-30,80.1,71.7,62.6,37.6,-21.7,-39.7,22,4,1,30.15,29.85,20,10,20,0.00
2013-1-31,73.0,57.9,49.5,41.6,8.5,-44.1,56,31,1,30.28,29.87,26,8,26,0.05